Regional Weather Roundup
Issued by NWS

Home | Current Version | Previous Version | Text Only | Print | Product List | Glossary Off
Versions: 1 2 3 4 5 6 7 8 9 10 11 12 13 14 15 16 17 18 19 20 21 22 23 24 25 26 27 28 29 30 31 32 33 34 35 36 37 38 39 40 41 42 43 44 45 46 47 48 49 50

927
ASUS45 KBOU 080307
RWRCO

WEATHER ROUNDUP FOR COLORADO
NATIONAL WEATHER SERVICE DENVER/BOULDER CO
800 PM MST SUN FEB 07 2016

NOTE: "FAIR" INDICATES FEW OR NO CLOUDS BELOW 12000 FEET WITH NO
SIGNIFICANT WEATHER AND/OR OBSTRUCTIONS TO VISIBILITY.

COZ001>005-013-030-031-080400-
...NORTHWEST COLORADO...

CITY           SKY/WX    TMP DP  RH WIND       PRES   REMARKS
CRAIG          CLOUDY     7   2  80 CALM      30.53R
HAYDEN         CLOUDY    16   9  73 CALM      30.50S
MEEKER         CLOUDY     9   6  88 NE5       30.51R WCI   1
MOUNT WERNER   NOT AVBL
STEAMBOAT SPGS CLOUDY    23  14  69 E5        30.50R WCI  17
WALDEN         CLOUDY    18   9  68 SE10      30.42F WCI   6
$$

COZ006>008-011-080400-
...WEST CENTRAL VALLEYS...

CITY           SKY/WX    TMP DP  RH WIND       PRES   REMARKS
GRAND JUNCTION CLOUDY    19  15  84 E5        30.53R WCI  12
MONTROSE       CLOUDY    22  16  78 SE6       30.54R WCI  14
EAGLE          CLEAR     25  19  80 E9        30.52R WCI  15
RIFLE          CLOUDY    19  11  70 CALM      30.53R
DELTA          CLOUDY    28  21  76 CALM      30.54R
NUCLA          CLOUDY    32  21  64 NE6       30.51R WCI  26
$$

COZ017>023-064>068-080400-
...SOUTHWEST COLORADO...

CITY           SKY/WX    TMP DP  RH WIND       PRES   REMARKS
DURANGO        CLOUDY    20  13  74 N5        30.39R WCI  13
CORTEZ         CLOUDY    32  20  61 CALM      30.41R
PAGOSA SPRINGS CLOUDY    19  15  84 CALM      30.40R
TELLURIDE      NOT AVBL
WOLF CREEK PAS CLOUDY    25  -2  30 N7        30.48S WCI  17
$$

COZ009-010-012-014-032>034-037-058>063-080400-
...CENTRAL COLORADO...

CITY           SKY/WX    TMP DP  RH WIND       PRES   REMARKS
ASPEN          CLOUDY    20  11  68 SW9       30.50R WCI   9
BUENA VISTA    CLOUDY    32  11  42 NW30G37   30.33S WCI  18
COPPER MTN     CLOUDY    18  10  73 W25G35    30.43R WCI  -1
BERTHOUD PASS  FAIR       9  -4  56 NW46      30.30S WCI -18
COTTONWOOD PAS CLOUDY    34   0  23 NW20G49   30.29R WCI  22
GUNNISON       CLOUDY     1 -11  55 CALM      30.53R
KREMMLING      CLOUDY    23  10  58 CALM      30.49S
LEADVILLE      CLOUDY    19   7  59 N8        30.46R WCI   9
MONARCH PASS   CLOUDY    16   9  73 MISG      30.51R
SALIDA         NOT AVBL
SUNLIGHT       CLOUDY    19  14  79 CALM        N/A
WILKERSON PASS CLOUDY    21   7  53 MISG      30.31R
$$

COZ069>075-080400-
...SAN LUIS VALLEY/SANGRE DE CRISTO MOUNTAINS...

CITY           SKY/WX    TMP DP  RH WIND       PRES   REMARKS
ALAMOSA        CLOUDY    28  15  58 W10       30.37S WCI  19
LA VETA PASS   CLOUDY    28   5  37 MISG      30.34F
SAGUACHE       CLOUDY    32  14  47 N14G21    30.40S WCI  22
$$

COZ035-036-038>040-080400-
...NORTHERN COLORADO FRONT RANGE...

CITY           SKY/WX    TMP DP  RH WIND       PRES   REMARKS
DENVER INTL AP CLOUDY    17  13  84 SE13      30.36R WCI   4
DMNS CITY PARK   N/A     25  19  77 E6        30.37S WCI  18
AURORA         PTCLDY    19  17  94 SE12      30.36R WCI   6
FRONT RANGE AP MOCLDY    18  12  79 SE12      30.37R WCI   5
ERIE MUNI ARPT CLEAR     22  19  89 S3        30.38R
BOULDER MUN AP PTCLDY    28  21  74 S3        30.37R
CENTENNIAL     CLOUDY    20  17  88 SE8       30.35R WCI  10
BROOMFIELD     MOCLDY    25  19  80 E7        30.36R WCI  17
FORT COLLINS   CLOUDY    21  18  86 S9        30.37S WCI  11
LONGMONT       CLOUDY    30  23  74 S8        30.39R WCI  23
$$

COZ041-046-047-076>085-087-088-080400-
...PIKES PEAK/PALMER DIVIDE AND SOUTHERN FOOTHILLS...

CITY           SKY/WX    TMP DP  RH WIND       PRES   REMARKS
COLO. SPRINGS  CLOUDY    22  18  85 CALM      30.36R
A. F. ACADEMY  CLOUDY    23  20  89 S6        30.33R WCI  16
SCHRIEVER AFB  CLOUDY    21  18  87 N7        30.36R WCI  13
ELLICOTT       NOT AVBL
FALCON         CLOUDY    19  18  96 NE5       30.34R WCI  12
FORT CARSON    CLOUDY    21  18  90 S8        30.35R WCI  11
LIMON          CLOUDY    19  13  77 W7        30.37R WCI  10
MONUMENT HILL  CLOUDY    18  18 100 E9        30.34R WCI   6
TRINIDAD       CLOUDY    24  19  81 NE5       30.37R WCI  18
$$

COZ042>045-048>051-090-091-080400-
...NORTHEAST COLORADO...

CITY           SKY/WX    TMP DP  RH WIND       PRES   REMARKS
GREELEY ARPT   CLEAR     21  16  79 N10       30.38R WCI  10
AKRON          CLOUDY    26  16  65 NW24      30.34R WCI  11
BURLINGTON     CLOUDY    29  17  61 NW17      30.34R WCI  17
WRAY           CLEAR     31  15  52 NW24G31   30.31R WCI  18
STERLING       CLOUDY    30  18  59 N21       30.33R WCI  17
HOLYOKE        CLEAR     30  16  55 NW17G23   30.31R WCI  18
FORT MORGAN    CLOUDY    20  13  72 W12       30.38R WCI   9
$$

COZ086-089-092>099-080400-
...SOUTHEAST COLORADO...

CITY           SKY/WX    TMP DP  RH WIND       PRES   REMARKS
PUEBLO         CLOUDY    30  22  72 CALM      30.40R
LA JUNTA       CLEAR     28  20  71 N3        30.41R
LAMAR          PTCLDY    27  18  69 W10       30.38R WCI  17
SPRINGFIELD      N/A     21  16  81 W9        30.38R WCI  11
$$




USA.gov is the U.S. government's official web portal to all federal, state and local government web resources and services.